CW8078 Weather Reports


time (UTC)temp
F
wind
direction
speed
knots
gust
knots
rain 1hr
in
rain 24hr
in
rain mn
in
humidity
%
barometer
mb
20260903090801 75 97 0.0 0.0 0.00 0.00 0.00 84 1011.4
20260903090302 75 97 0.0 0.0 0.00 0.00 0.00 84 1011.3
20260903084802 75 97 0.0 0.0 0.00 0.00 0.00 85 1011.4
20260903083802 75 97 0.0 0.0 0.00 0.00 0.00 84 1011.3
20260903083302 76 97 0.0 0.0 0.00 0.00 0.00 84 1011.3
20260903081802 76 97 0.0 0.0 0.00 0.00 0.00 82 1011.2
20260903081302 76 97 0.0 0.0 0.00 0.00 0.00 82 1011.1
20260903080802 76 97 0.0 0.0 0.00 0.00 0.00 83 1011.1
20260903080302 76 97 0.0 0.0 0.00 0.00 0.00 83 1011.1
20260903074802 76 97 0.0 0.0 0.00 0.00 0.00 83 1011.1
20260903074302 76 97 0.0 0.0 0.00 0.00 0.00 82 1011.1
20260903073802 76 97 0.0 0.0 0.00 0.00 0.00 82 1011.1
20260903073302 77 97 0.0 0.0 0.00 0.00 0.00 82 1011.2
20260903071802 77 97 0.0 0.0 0.00 0.00 0.00 82 1011.2
20260903071302 77 97 0.0 0.0 0.00 0.00 0.00 82 1011.2
20260903070802 77 97 0.0 0.0 0.00 0.00 0.00 83 1011.2
20260903064801 78 97 0.0 0.0 0.00 0.00 0.00 80 1011.2
20260903064302 78 97 0.0 0.0 0.00 0.00 0.00 80 1011.2
20260903063802 78 97 0.0 0.0 0.00 0.00 0.00 81 1011.2
20260903063302 78 97 0.0 0.0 0.00 0.00 0.00 79 1011.2
20260903061802 79 97 0.0 0.0 0.00 0.00 0.00 79 1011.3
20260903061302 79 97 0.0 0.0 0.00 0.00 0.00 79 1011.2
20260903060802 79 97 0.0 0.0 0.00 0.00 0.00 79 1011.2
20260903060302 79 97 0.0 0.0 0.00 0.00 0.00 78 1011.1
20260903054802 80 97 0.0 0.0 0.00 0.00 0.00 77 1011.1
20260903054302 80 97 0.0 0.0 0.00 0.00 0.00 77 1011.0
20260903053802 81 97 0.0 0.0 0.00 0.00 0.00 76 1011.0
20260903053302 81 126 0.0 0.0 0.00 0.00 0.00 76 1011.0
20260903051802 82 126 0.0 0.0 0.00 0.00 0.00 74 1010.9
20260903051302 82 126 0.0 0.0 0.00 0.00 0.00 73 1010.9
20260903050802 82 131 0.0 0.0 0.00 0.00 0.00 74 1010.9
20260903050302 82 131 0.0 0.0 0.00 0.00 0.00 74 1010.9
20260903044803 83 157 0.0 0.0 0.00 0.00 0.00 73 1010.7
20260903043802 83 142 0.0 0.0 0.00 0.00 0.00 73 1010.6
20260903043302 83 136 0.0 0.0 0.00 0.00 0.00 73 1010.6
20260903041802 83 129 0.0 0.0 0.00 0.00 0.00 73 1010.7
20260903041302 83 123 0.0 0.0 0.00 0.00 0.00 73 1010.7
20260903040804 83 123 0.0 0.0 0.00 0.00 0.00 73 1010.7
20260903040302 83 123 0.0 0.0 0.00 0.00 0.00 73 1010.7
20260903033302 83 123 0.0 0.0 0.00 0.00 0.00 73 1010.7
20260903031302 84 123 0.0 0.0 0.00 0.00 0.00 73 1010.8
20260903030302 84 123 0.0 0.0 0.00 0.00 0.00 73 1010.7
20260903024802 85 123 0.0 0.0 0.00 0.00 0.00 70 1010.7
20260903024302 85 123 0.0 0.0 0.00 0.00 0.00 70 1010.8
20260903023802 85 123 0.0 0.0 0.00 0.00 0.00 70 1010.8
20260903023302 85 123 0.0 0.0 0.00 0.00 0.00 70 1010.7
20260903021802 84 142 0.0 0.0 0.00 0.00 0.00 72 1010.7
20260903014803 84 142 0.0 0.0 0.00 0.00 0.00 72 1010.3
20260903014303 84 142 0.0 0.0 0.00 0.00 0.00 72 1010.3
20260903013802 84 142 0.0 0.0 0.00 0.00 0.00 72 1010.2
20260903013302 85 142 0.0 0.0 0.00 0.00 0.00 72 1010.1
20260903011802 85 142 0.0 0.0 0.00 0.00 0.00 72 1010.0
20260903011302 85 142 0.0 0.0 0.00 0.00 0.00 72 1009.9
20260903010802 85 142 0.0 0.0 0.00 0.00 0.00 72 1009.9
20260903010302 85 142 0.0 0.0 0.00 0.00 0.00 72 1009.9
20260903004803 86 142 0.0 0.0 0.00 0.00 0.00 71 1010.0
20260903004303 86 142 0.0 0.0 0.00 0.00 0.00 70 1009.9
20260903003803 87 142 0.0 0.0 0.00 0.00 0.00 70 1009.9
20260903003302 87 142 0.0 0.0 0.00 0.00 0.00 70 1009.9
20260903001802 88 142 0.0 0.0 0.00 0.00 0.00 68 1010.0
20260903000802 88 142 0.0 0.0 0.00 0.00 0.00 67 1010.0
20260903000303 89 142 0.0 0.0 0.00 0.00 0.00 67 1010.0
20260902234802 89 142 0.0 0.0 0.00 0.00 0.00 65 1010.0
20260902234303 89 142 0.0 0.0 0.00 0.00 0.00 64 1010.0
20260902233803 89 142 0.0 0.0 0.00 0.00 0.00 64 1010.0
20260902233302 90 142 0.0 0.0 0.00 0.00 0.00 62 1010.1
20260902231302 91 142 0.0 0.0 0.00 0.00 0.00 60 1010.0
20260902230802 91 142 0.0 0.0 0.00 0.00 0.00 60 1010.0
20260902230302 91 142 0.0 0.0 0.00 0.00 0.00 59 1010.0
20260902224802 92 142 0.0 0.0 0.00 0.00 0.00 60 1010.1
20260902223802 92 142 0.0 0.0 0.00 0.00 0.00 58 1010.1
20260902223302 92 135 0.0 0.0 0.00 0.00 0.00 61 1010.1
20260902221803 92 78 0.0 0.0 0.00 0.00 0.00 65 1010.1
20260902221302 93 157 0.0 0.0 0.00 0.00 0.00 64 1010.1
20260902220802 93 157 0.0 0.0 0.00 0.00 0.00 63 1010.1
20260902220302 93 157 0.0 0.0 0.00 0.00 0.00 63 1010.1
20260902214802 94 157 0.0 0.0 0.00 0.00 0.00 60 1010.3
20260902214302 94 157 0.0 0.0 0.00 0.00 0.00 60 1010.4
20260902213802 94 157 0.0 0.0 0.00 0.00 0.00 56 1010.4
20260902213303 94 157 0.0 0.0 0.00 0.00 0.00 56 1010.4
20260902211802 94 157 0.0 0.0 0.00 0.00 0.00 58 1010.5
20260902211302 94 157 0.0 0.0 0.00 0.00 0.00 57 1010.6
20260902210802 95 157 0.0 0.0 0.00 0.00 0.00 56 1010.5
20260902210303 96 157 0.0 0.0 0.00 0.00 0.00 54 1010.6
20260902204802 97 157 0.0 0.0 0.00 0.00 0.00 49 1010.7
20260902204303 97 157 0.0 0.0 0.00 0.00 0.00 48 1010.8
20260902203803 97 157 0.0 0.0 0.00 0.00 0.00 47 1010.8
20260902203303 97 157 0.0 0.0 0.00 0.00 0.00 47 1010.8
20260902201803 97 0 0.0 0.0 0.00 0.00 0.00 49 1011.0
20260902201303 98 0 0.0 0.9 0.00 0.00 0.00 45 1011.1
20260902200802 98 11 0.0 0.9 0.00 0.00 0.00 48 1011.2
20260902200302 98 252 0.0 0.9 0.00 0.00 0.00 46 1011.2
20260902194802 98 161 0.0 0.0 0.00 0.00 0.00 47 1011.4
20260902194303 98 153 0.0 0.0 0.00 0.00 0.00 47 1011.6
20260902193302 99 202 0.0 0.0 0.00 0.00 0.00 47 1011.7
20260902191802 98 271 0.0 0.0 0.00 0.00 0.00 49 1012.0
20260902191302 99 277 0.0 0.0 0.00 0.00 0.00 49 1012.1
20260902190802 99 270 0.0 0.0 0.00 0.00 0.00 48 1012.1
20260902190303 99 268 0.0 0.0 0.00 0.00 0.00 52 1012.1
20260902184803 98 160 0.0 0.0 0.00 0.00 0.00 51 1012.2
20260902184303 98 160 0.0 0.0 0.00 0.00 0.00 49 1012.3
20260902183803 99 163 0.0 0.9 0.00 0.00 0.00 48 1012.3
20260902183303 98 161 0.0 0.0 0.00 0.00 0.00 50 1012.4
20260902181803 98 281 0.0 0.0 0.00 0.00 0.00 50 1012.6
20260902181303 98 246 0.0 0.0 0.00 0.00 0.00 52 1012.6
20260902180803 98 172 0.0 0.0 0.00 0.00 0.00 51 1012.7
20260902180303 97 248 0.0 0.9 0.00 0.00 0.00 52 1012.7
20260902174302 97 189 0.0 0.0 0.00 0.00 0.00 52 1012.9
20260902173803 97 228 0.0 0.9 0.00 0.00 0.00 51 1013.0
20260902173302 97 157 0.0 0.9 0.00 0.00 0.00 53 1013.1
20260902171802 96 152 0.0 0.0 0.00 0.00 0.00 52 1013.1
20260902171302 96 142 0.0 0.0 0.00 0.00 0.00 54 1013.2
20260902170802 95 319 0.0 0.0 0.00 0.00 0.00 55 1013.3
20260902170305 95 234 0.0 0.0 0.00 0.00 0.00 54 1013.3
20260902164803 93 168 0.0 0.0 0.00 0.00 0.00 57 1013.4
20260902164303 93 170 0.0 0.0 0.00 0.00 0.00 57 1013.5
20260902163803 92 175 0.0 0.0 0.00 0.00 0.00 58 1013.4
20260902163303 92 196 0.0 0.9 0.00 0.00 0.00 59 1013.4
20260902161802 91 234 0.0 0.0 0.00 0.00 0.00 62 1013.6
20260902161303 90 184 0.0 0.0 0.00 0.00 0.00 60 1013.6
20260902160803 90 182 0.0 0.0 0.00 0.00 0.00 60 1013.6
20260902160302 90 221 0.0 0.0 0.00 0.00 0.00 61 1013.7
20260902154803 89 193 0.0 0.0 0.00 0.00 0.00 63 1013.7
20260902154303 88 207 0.0 0.0 0.00 0.00 0.00 64 1013.7
20260902153803 88 176 0.0 0.0 0.00 0.00 0.00 65 1013.7
20260902153303 88 171 0.0 0.0 0.00 0.00 0.00 66 1013.7
20260902151302 86 179 0.0 0.0 0.00 0.00 0.00 67 1013.7
20260902150303 86 131 0.0 0.0 0.00 0.00 0.00 67 1013.7
20260902144803 85 156 0.0 0.0 0.00 0.00 0.00 69 1013.7
20260902144303 85 153 0.0 0.0 0.00 0.00 0.00 71 1013.6
20260902143803 84 153 0.0 0.0 0.00 0.00 0.00 70 1013.6
20260902143303 84 153 0.0 0.0 0.00 0.00 0.00 70 1013.7
20260902141802 83 151 0.0 0.0 0.00 0.00 0.00 73 1013.7
20260902141302 82 167 0.0 0.0 0.00 0.00 0.00 74 1013.8
20260902140303 82 167 0.0 0.0 0.00 0.00 0.00 73 1013.8
20260902134803 80 137 0.0 0.0 0.00 0.00 0.00 75 1013.9
20260902134302 80 137 0.0 0.0 0.00 0.00 0.00 76 1013.8
20260902133802 79 150 0.0 0.0 0.00 0.00 0.00 76 1013.8
20260902133302 79 150 0.0 0.0 0.00 0.00 0.00 77 1013.9
20260902131803 77 150 0.0 0.0 0.00 0.00 0.00 82 1013.8
20260902131303 76 150 0.0 0.0 0.00 0.00 0.00 82 1013.9
20260902130302 75 150 0.0 0.0 0.00 0.00 0.00 85 1013.8
20260902124802 75 150 0.0 0.0 0.00 0.00 0.00 83 1013.8
20260902124303 75 150 0.0 0.0 0.00 0.00 0.00 83 1013.8
20260902123803 75 150 0.0 0.0 0.00 0.00 0.00 84 1013.8
20260902123302 75 150 0.0 0.0 0.00 0.00 0.00 84 1013.7
20260902121303 74 150 0.0 0.0 0.00 0.00 0.00 85 1013.5
20260902120802 74 150 0.0 0.0 0.00 0.00 0.00 85 1013.5
20260902120303 74 150 0.0 0.0 0.00 0.00 0.00 84 1013.5
20260902114303 75 150 0.0 0.0 0.00 0.00 0.00 83 1013.3
20260902113303 75 150 0.0 0.0 0.00 0.00 0.00 84 1013.3
20260902111803 73 150 0.0 0.0 0.00 0.00 0.00 86 1013.3
20260902111303 73 150 0.0 0.0 0.00 0.00 0.00 87 1013.3
20260902110803 73 150 0.0 0.0 0.00 0.00 0.00 87 1013.3
20260902110303 73 150 0.0 0.0 0.00 0.00 0.00 87 1013.2
20260902104802 73 150 0.0 0.0 0.00 0.00 0.00 86 1013.2
20260902104303 73 150 0.0 0.0 0.00 0.00 0.00 85 1013.2
20260902103803 74 150 0.0 0.0 0.00 0.00 0.00 85 1013.1
20260902103303 74 150 0.0 0.0 0.00 0.00 0.00 85 1013.1
20260902101803 74 150 0.0 0.0 0.00 0.00 0.00 85 1013.1
20260902101303 74 150 0.0 0.0 0.00 0.00 0.00 85 1013.1
20260902100803 74 150 0.0 0.0 0.00 0.00 0.00 85 1013.0
20260902100302 74 150 0.0 0.0 0.00 0.00 0.00 84 1012.9
20260902094803 75 150 0.0 0.0 0.00 0.00 0.00 84 1012.8
20260902093803 75 150 0.0 0.0 0.00 0.00 0.00 84 1012.8
20260902093303 75 150 0.0 0.0 0.00 0.00 0.00 82 1012.7
20260902091303 76 150 0.0 0.0 0.00 0.00 0.00 82 1012.6